Time,TemperatureF,DewpointF,PressureIn,WindDirection,WindDirectionDegrees,WindSpeedMPH,WindSpeedGustMPH,Humidity,HourlyPrecipIn,Conditions,Clouds,dailyrainin,SoftwareType,DateUTC
2013-03-30 00:52:00,39.0,-99.9,30.16,NNE,13,-999.0,-999.0,-999,-99.99,,,-99.99,,2013-03-30 04:52:00,
2013-03-30 01:32:00,39.0,-99.9,30.16,NNE,13,-999.0,-999.0,-999,-99.99,,,-99.99,,2013-03-30 05:32:00,
2013-03-30 01:42:00,39.0,-99.9,30.16,NNE,13,-999.0,-999.0,-999,-99.99,,,-99.99,,2013-03-30 05:42:00,
2013-03-30 01:52:00,41.0,-99.9,30.16,North,7,-999.0,-999.0,-999,-99.99,,,-99.99,,2013-03-30 05:52:00,
2013-03-30 02:32:00,41.0,-99.9,30.16,North,7,-999.0,-999.0,-999,-99.99,,,-99.99,,2013-03-30 06:32:00,
2013-03-30 02:42:00,41.0,-99.9,30.16,North,7,-999.0,-999.0,-999,-99.99,,,-99.99,,2013-03-30 06:42:00,
2013-03-30 02:52:00,41.0,-99.9,30.16,North,-999,-999.0,-999.0,-999,-99.99,,,-99.99,,2013-03-30 06:52:00,
2013-03-30 03:32:00,41.0,-99.9,30.16,North,-999,-999.0,-999.0,-999,-99.99,,,-99.99,,2013-03-30 07:32:00,
2013-03-30 03:42:00,41.0,-99.9,30.16,North,-999,-999.0,-999.0,-999,-99.99,,,-99.99,,2013-03-30 07:42:00,
2013-03-30 03:52:00,40.0,-99.9,30.16,North,-999,-999.0,3.0,-999,-99.99,,,-99.99,,2013-03-30 07:52:00,
2013-03-30 04:22:00,40.0,-99.9,30.16,North,-999,-999.0,3.0,-999,-99.99,,,-99.99,,2013-03-30 08:22:00,
2013-03-30 04:32:00,40.0,-99.9,30.16,North,-999,-999.0,3.0,-999,-99.99,,,-99.99,,2013-03-30 08:32:00,
2013-03-30 04:42:00,40.0,-99.9,30.16,North,-999,-999.0,3.0,-999,-99.99,,,-99.99,,2013-03-30 08:42:00,
2013-03-30 04:52:00,39.0,-99.9,30.16,SE,140,-999.0,2.0,-999,-99.99,,,-99.99,,2013-03-30 08:52:00,
2013-03-30 05:33:00,39.0,-99.9,30.16,SE,140,-999.0,2.0,-999,-99.99,,,-99.99,,2013-03-30 09:33:00,
2013-03-30 05:43:00,39.0,-99.9,30.16,SE,140,-999.0,2.0,-999,-99.99,,,-99.99,,2013-03-30 09:43:00,
2013-03-30 05:52:00,39.0,-99.9,30.16,North,-999,-999.0,-999.0,-999,-99.99,,,-99.99,,2013-03-30 09:52:00,
2013-03-30 06:23:00,39.0,-99.9,30.16,North,-999,-999.0,-999.0,-999,-99.99,,,-99.99,,2013-03-30 10:23:00,
2013-03-30 06:33:00,39.0,-99.9,30.16,North,-999,-999.0,-999.0,-999,-99.99,,,-99.99,,2013-03-30 10:33:00,
2013-03-30 06:42:00,39.0,-99.9,30.16,North,-999,-999.0,-999.0,-999,-99.99,,,-99.99,,2013-03-30 10:42:00,
2013-03-30 06:52:00,35.0,-99.9,30.17,North,-999,-999.0,-999.0,-999,-99.99,,,-99.99,,2013-03-30 10:52:00,
2013-03-30 07:23:00,35.0,-99.9,30.17,North,-999,-999.0,-999.0,-999,-99.99,,,-99.99,,2013-03-30 11:23:00,
2013-03-30 07:33:00,35.0,-99.9,30.17,North,-999,-999.0,-999.0,-999,-99.99,,,-99.99,,2013-03-30 11:33:00,
2013-03-30 07:43:00,35.0,-99.9,30.17,North,-999,-999.0,-999.0,-999,-99.99,,,-99.99,,2013-03-30 11:43:00,
2013-03-30 07:52:00,37.0,-99.9,30.19,North,-999,-999.0,-999.0,-999,-99.99,,,-99.99,,2013-03-30 11:52:00,
2013-03-30 08:23:00,37.0,-99.9,30.19,North,-999,-999.0,-999.0,-999,-99.99,,,-99.99,,2013-03-30 12:23:00,
2013-03-30 08:33:00,37.0,-99.9,30.19,North,-999,-999.0,-999.0,-999,-99.99,,,-99.99,,2013-03-30 12:33:00,
2013-03-30 08:43:00,37.0,-99.9,30.19,North,-999,-999.0,-999.0,-999,-99.99,,,-99.99,,2013-03-30 12:43:00,
2013-03-30 08:52:00,45.0,-99.9,30.20,North,6,-999.0,5.0,-999,-99.99,,,-99.99,,2013-03-30 12:52:00,
2013-03-30 09:23:00,45.0,-99.9,30.20,North,6,-999.0,5.0,-999,-99.99,,,-99.99,,2013-03-30 13:23:00,
2013-03-30 09:32:00,45.0,-99.9,30.20,North,6,-999.0,5.0,-999,-99.99,,,-99.99,,2013-03-30 13:32:00,
2013-03-30 09:43:00,45.0,-99.9,30.20,North,6,-999.0,5.0,-999,-99.99,,,-99.99,,2013-03-30 13:43:00,
2013-03-30 09:52:00,51.0,-99.9,30.20,NNE,24,-999.0,-999.0,-999,-99.99,,,-99.99,,2013-03-30 13:52:00,
2013-03-30 10:33:00,51.0,-99.9,30.20,NNE,24,-999.0,-999.0,-999,-99.99,,,-99.99,,2013-03-30 14:33:00,
2013-03-30 10:43:00,51.0,-99.9,30.20,NNE,24,-999.0,-999.0,-999,-99.99,,,-99.99,,2013-03-30 14:43:00,
2013-03-30 10:52:00,47.0,-99.9,30.19,WSW,245,5.0,7.0,-999,-99.99,,,-99.99,,2013-03-30 14:52:00,
2013-03-30 11:23:00,47.0,-99.9,30.19,WSW,245,5.0,7.0,-999,-99.99,,,-99.99,,2013-03-30 15:23:00,
2013-03-30 11:34:00,47.0,-99.9,30.19,WSW,245,5.0,7.0,-999,-99.99,,,-99.99,,2013-03-30 15:34:00,
2013-03-30 11:43:00,47.0,-99.9,30.19,WSW,245,5.0,7.0,-999,-99.99,,,-99.99,,2013-03-30 15:43:00,
2013-03-30 11:52:00,49.0,-99.9,30.19,ESE,123,9.0,11.0,-999,-99.99,,,-99.99,,2013-03-30 15:52:00,
2013-03-30 12:23:00,49.0,-99.9,30.19,ESE,123,9.0,11.0,-999,-99.99,,,-99.99,,2013-03-30 16:23:00,
2013-03-30 12:33:00,49.0,-99.9,30.19,ESE,123,9.0,11.0,-999,-99.99,,,-99.99,,2013-03-30 16:33:00,
2013-03-30 12:43:00,49.0,-99.9,30.19,ESE,123,9.0,11.0,-999,-99.99,,,-99.99,,2013-03-30 16:43:00,
2013-03-30 12:52:00,50.0,-99.9,30.17,North,-999,-999.0,10.0,-999,-99.99,,,-99.99,,2013-03-30 16:52:00,
2013-03-30 13:33:00,50.0,-99.9,30.17,North,-999,-999.0,10.0,-999,-99.99,,,-99.99,,2013-03-30 17:33:00,
2013-03-30 13:43:00,50.0,-99.9,30.17,North,-999,-999.0,10.0,-999,-99.99,,,-99.99,,2013-03-30 17:43:00,
2013-03-30 13:52:00,54.0,-99.9,30.14,North,-999,-999.0,16.0,-999,-99.99,,,-99.99,,2013-03-30 17:52:00,
2013-03-30 14:22:00,54.0,-99.9,30.14,North,-999,-999.0,16.0,-999,-99.99,,,-99.99,,2013-03-30 18:22:00,
2013-03-30 14:33:00,54.0,-99.9,30.14,North,-999,-999.0,16.0,-999,-99.99,,,-99.99,,2013-03-30 18:33:00,
2013-03-30 14:43:00,54.0,-99.9,30.14,North,-999,-999.0,16.0,-999,-99.99,,,-99.99,,2013-03-30 18:43:00,
2013-03-30 14:52:00,56.0,-99.9,30.12,North,-999,-999.0,14.0,-999,-99.99,,,-99.99,,2013-03-30 18:52:00,
2013-03-30 15:22:00,56.0,-99.9,30.12,North,-999,-999.0,14.0,-999,-99.99,,,-99.99,,2013-03-30 19:22:00,
2013-03-30 15:32:00,56.0,-99.9,30.12,North,-999,-999.0,14.0,-999,-99.99,,,-99.99,,2013-03-30 19:32:00,
2013-03-30 15:42:00,56.0,-99.9,30.12,North,-999,-999.0,14.0,-999,-99.99,,,-99.99,,2013-03-30 19:42:00,
2013-03-30 15:52:00,55.0,-99.9,30.11,North,-999,-999.0,14.0,-999,-99.99,,,-99.99,,2013-03-30 19:52:00,
2013-03-30 16:33:00,55.0,-99.9,30.11,North,-999,-999.0,14.0,-999,-99.99,,,-99.99,,2013-03-30 20:33:00,
2013-03-30 16:43:00,55.0,-99.9,30.11,North,-999,-999.0,14.0,-999,-99.99,,,-99.99,,2013-03-30 20:43:00,
2013-03-30 17:52:00,49.0,-99.9,30.11,North,-999,-999.0,10.0,-999,-99.99,,,-99.99,,2013-03-30 21:52:00,
2013-03-30 18:24:00,49.0,-99.9,30.11,North,-999,-999.0,10.0,-999,-99.99,,,-99.99,,2013-03-30 22:24:00,
2013-03-30 18:33:00,49.0,-99.9,30.11,North,-999,-999.0,10.0,-999,-99.99,,,-99.99,,2013-03-30 22:33:00,
2013-03-30 18:44:00,49.0,-99.9,30.11,North,-999,-999.0,10.0,-999,-99.99,,,-99.99,,2013-03-30 22:44:00,
2013-03-30 18:52:00,47.0,-99.9,30.12,North,-999,-999.0,8.0,-999,-99.99,,,-99.99,,2013-03-30 22:52:00,
2013-03-30 19:22:00,47.0,-99.9,30.12,North,-999,-999.0,8.0,-999,-99.99,,,-99.99,,2013-03-30 23:22:00,
2013-03-30 19:33:00,47.0,-99.9,30.12,North,-999,-999.0,8.0,-999,-99.99,,,-99.99,,2013-03-30 23:33:00,
2013-03-30 19:43:00,47.0,-99.9,30.12,North,-999,-999.0,8.0,-999,-99.99,,,-99.99,,2013-03-30 23:43:00,
2013-03-30 19:52:00,46.0,-99.9,30.13,WNW,302,-999.0,9.0,-999,-99.99,,,-99.99,,2013-03-30 23:52:00,
2013-03-30 20:23:00,46.0,-99.9,30.13,WNW,302,-999.0,9.0,-999,-99.99,,,-99.99,,2013-03-31 00:23:00,
2013-03-30 20:33:00,46.0,-99.9,30.13,WNW,302,-999.0,9.0,-999,-99.99,,,-99.99,,2013-03-31 00:33:00,
2013-03-30 20:43:00,46.0,-99.9,30.13,WNW,302,-999.0,9.0,-999,-99.99,,,-99.99,,2013-03-31 00:43:00,
2013-03-30 20:52:00,45.0,-99.9,30.14,SW,225,-999.0,9.0,-999,-99.99,,,-99.99,,2013-03-31 00:52:00,
2013-03-30 21:22:00,45.0,-99.9,30.14,SW,225,-999.0,9.0,-999,-99.99,,,-99.99,,2013-03-31 01:22:00,
2013-03-30 21:32:00,45.0,-99.9,30.14,SW,225,-999.0,9.0,-999,-99.99,,,-99.99,,2013-03-31 01:32:00,
2013-03-30 21:43:00,45.0,-99.9,30.14,SW,225,-999.0,9.0,-999,-99.99,,,-99.99,,2013-03-31 01:43:00,
2013-03-30 21:52:00,45.0,-99.9,30.16,NNE,29,-999.0,9.0,-999,-99.99,,,-99.99,,2013-03-31 01:52:00,
2013-03-30 22:22:00,45.0,-99.9,30.16,NNE,29,-999.0,9.0,-999,-99.99,,,-99.99,,2013-03-31 02:22:00,
2013-03-30 22:33:00,45.0,-99.9,30.16,NNE,29,-999.0,9.0,-999,-99.99,,,-99.99,,2013-03-31 02:33:00,
2013-03-30 22:43:00,45.0,-99.9,30.16,NNE,29,-999.0,9.0,-999,-99.99,,,-99.99,,2013-03-31 02:43:00,
2013-03-30 23:52:00,44.0,-99.9,30.16,North,-999,-999.0,7.0,-999,-99.99,,,-99.99,,2013-03-31 03:52:00,